Вернуться в каталог

STARLINK-35080

АктивенСвязьSSO
NORAD 65437·PAYLOAD·🇺🇸 United States

Запущен Sep 3, 2025 с Vandenberg Space Force Base

Loading…

Ближайшие Пролёты (ближайшие 24 часа)

TLE

СвежийSource: CelesTrak SupGP

Эпоха: Sep 14, 2026, 20:58 UTC

1 65437C 25194D   26257.87409722  .00030198  00000+0  93773-3 0  2576
2 65437  97.2845 107.5519 0001679  94.4000 229.7258 15.33412942    10

Отслеживайте STARLINK-35080 в реальном времени с AllMySat

Download on the App Store